Location: Bourg-d�Oueil
(42.8588°N, 0.4991°E)
Time: 01:30:31
(UTC+00:00)

NOSS 3-2 (C) - Pass Details

Date: 16 June 2021
Orbit: 778 x 1434 km, 63.4° (Epoch: 14 July)

Event Time Altitude Azimuth Distance (km) Brightness Sun altitude
Rises 21:08:54 0° 233° (SW) 3,319 6.3 -13.1°
Reaches altitude 10° 21:11:17 10° 239° (WSW) 2,439 5.7 -13.4°
Maximum altitude 21:16:43 50° 314° (NW) 1,147 4.4 -14.0°
Drops below altitude 10° 21:23:00 10° 29° (NNE) 2,810 6.2 -14.7°
Sets 21:25:56 0° 35° (NE) 3,873 6.9 -15.0°
